Total_Precipitation_Accumulation
0.01 0.04 0.07 0.08 0.08 0.08 0.06 0.07 0.11 0.11 0.11 0.06 0.02 0.02 0.01 0.01 0.00 0.00 0.00 0.01 0.01 0.01 0.01 0.01 0.01 0.01 0.01 0.01 0.02 0.02 0.04 0.09 0.09 0.07 0.06 0.06 0.08 0.10 0.13 0.14 0.14 0.18 0.23 0.28
0.01 0.03 0.04 0.07 0.10 0.08 0.04 0.03 0.03 0.03 0.04 0.03 0.02 0.03 0.03 0.03 0.02 0.02 0.02 0.02 0.02 0.02 0.02 0.01 0.01 0.02 0.01 0.02 0.02 0.04 0.08 0.14 0.17 0.14 0.08 0.06 0.06 0.08 0.10 0.11 0.14 0.19 0.23 0.26
0.02 0.04 0.04 0.13 0.12 0.07 0.04 0.03 0.04 0.05 0.06 0.05 0.06 0.06 0.07 0.08 0.06 0.05 0.04 0.03 0.02 0.01 0.01 0.01 0.01 0.01 0.02 0.02 0.03 0.10 0.13 0.11 0.18 0.20 0.10 0.06 0.07 0.09 0.13 0.14 0.18 0.23 0.26 0.27
0.04 0.04 0.11 0.10 0.05 0.05 0.05 0.05 0.06 0.07 0.08 0.09 0.11 0.10 0.10 0.11 0.08 0.04 0.02 0.01 0.01 0.00 0.00 0.00 0.00 0.01 0.02 0.05 0.05 0.13 0.16 0.13 0.19 0.21 0.13 0.13 0.15 0.17 0.20 0.24 0.28 0.32 0.32 0.33
0.04 0.04 0.09 0.07 0.08 0.08 0.10 0.10 0.09 0.11 0.13 0.13 0.11 0.07 0.05 0.04 0.02 0.01 0.01 0.00 0.00 0.00 0.00 0.00 0.01 0.01 0.03 0.08 0.11 0.12 0.15 0.14 0.21 0.28 0.24 0.24 0.26 0.29 0.34 0.38 0.39 0.40 0.42 0.42
0.07 0.11 0.13 0.12 0.13 0.14 0.13 0.20 0.17 0.15 0.12 0.08 0.06 0.05 0.03 0.02 0.01 0.01 0.01 0.00 0.00 0.00 0.00 0.01 0.02 0.04 0.05 0.08 0.13 0.15 0.16 0.18 0.24 0.37 0.42 0.40 0.39 0.42 0.44 0.52 0.55 0.55 0.52 0.51
0.14 0.17 0.17 0.15 0.16 0.16 0.26 0.34 0.26 0.23 0.18 0.16 0.14 0.12 0.07 0.05 0.04 0.02 0.01 0.01 0.01 0.01 0.02 0.03 0.05 0.08 0.12 0.14 0.16 0.18 0.20 0.24 0.30 0.44 0.58 0.57 0.56 0.56 0.58 0.62 0.68 0.74 0.74 0.71
0.23 0.35 0.35 0.21 0.19 0.28 0.39 0.35 0.30 0.26 0.21 0.18 0.16 0.11 0.08 0.06 0.05 0.03 0.03 0.03 0.03 0.04 0.05 0.07 0.10 0.17 0.22 0.23 0.23 0.26 0.28 0.32 0.38 0.51 0.55 0.59 0.67 0.73 0.81 0.85 0.86 0.88 0.92 0.88
0.27 0.37 0.32 0.28 0.27 0.28 0.31 0.31 0.26 0.20 0.18 0.17 0.15 0.13 0.12 0.10 0.07 0.06 0.05 0.04 0.05 0.06 0.09 0.13 0.18 0.28 0.37 0.38 0.39 0.40 0.39 0.40 0.45 0.53 0.66 0.81 0.86 0.83 0.89 0.98 1.02 1.05 1.04 0.99
0.22 0.27 0.29 0.25 0.21 0.18 0.13 0.11 0.10 0.09 0.09 0.09 0.11 0.10 0.10 0.10 0.08 0.08 0.07 0.06 0.06 0.08 0.13 0.19 0.26 0.39 0.48 0.51 0.53 0.51 0.46 0.44 0.48 0.58 0.68 0.82 0.97 1.00 1.05 1.08 1.10 1.14 1.15 1.07
0.21 0.22 0.25 0.25 0.19 0.14 0.08 0.05 0.03 0.03 0.03 0.05 0.08 0.09 0.10 0.11 0.11 0.08 0.07 0.07 0.09 0.13 0.19 0.23 0.32 0.47 0.54 0.59 0.62 0.60 0.53 0.48 0.48 0.56 0.66 0.74 0.87 0.99 1.02 1.04 0.99 1.01 1.06 1.03
0.16 0.15 0.15 0.14 0.09 0.05 0.03 0.03 0.02 0.02 0.02 0.03 0.05 0.06 0.06 0.07 0.07 0.06 0.07 0.10 0.14 0.19 0.25 0.28 0.34 0.45 0.54 0.67 0.80 0.82 0.72 0.62 0.55 0.54 0.62 0.70 0.80 0.83 0.75 0.74 0.72 0.72 0.76 0.71
0.06 0.09 0.10 0.08 0.04 0.03 0.02 0.02 0.02 0.02 0.02 0.02 0.03 0.03 0.03 0.03 0.03 0.05 0.10 0.17 0.23 0.28 0.32 0.38 0.44 0.52 0.60 0.74 0.94 1.05 0.97 0.81 0.68 0.62 0.62 0.66 0.76 0.84 0.87 0.77 0.69 0.63 0.61 0.53
0.09 0.07 0.08 0.06 0.04 0.03 0.02 0.02 0.01 0.01 0.02 0.02 0.02 0.02 0.03 0.03 0.06 0.11 0.20 0.27 0.31 0.35 0.41 0.47 0.53 0.59 0.67 0.80 0.95 1.05 1.04 0.92 0.77 0.73 0.71 0.69 0.72 0.81 0.90 0.98 0.95 0.77 0.61 0.51
0.10 0.09 0.08 0.06 0.04 0.02 0.02 0.01 0.02 0.02 0.02 0.02 0.02 0.03 0.04 0.07 0.12 0.19 0.26 0.36 0.45 0.49 0.48 0.51 0.58 0.62 0.70 0.83 0.93 0.98 0.98 0.91 0.81 0.79 0.79 0.72 0.67 0.74 0.81 0.89 0.99 0.95 0.77 0.64
0.12 0.09 0.06 0.04 0.03 0.02 0.02 0.02 0.02 0.03 0.03 0.03 0.03 0.04 0.06 0.10 0.15 0.22 0.33 0.48 0.67 0.68 0.60 0.59 0.61 0.63 0.71 0.87 0.95 0.90 0.82 0.67 0.65 0.71 0.72 0.69 0.68 0.71 0.80 0.89 0.97 0.95 0.84 0.72
0.06 0.05 0.04 0.03 0.03 0.02 0.02 0.02 0.02 0.03 0.03 0.04 0.05 0.07 0.11 0.17 0.26 0.39 0.49 0.56 0.64 0.65 0.61 0.58 0.54 0.56 0.68 0.83 0.92 0.83 0.70 0.57 0.47 0.52 0.62 0.67 0.70 0.76 0.87 0.94 0.97 0.90 0.76 0.62
0.04 0.03 0.02 0.02 0.02 0.02 0.02 0.02 0.02 0.03 0.04 0.07 0.10 0.13 0.19 0.31 0.50 0.69 0.73 0.71 0.67 0.58 0.52 0.50 0.45 0.49 0.61 0.69 0.79 0.78 0.66 0.55 0.46 0.47 0.53 0.58 0.68 0.80 0.89 0.89 0.85 0.78 0.70 0.61
0.04 0.04 0.03 0.02 0.02 0.02 0.02 0.03 0.03 0.05 0.07 0.13 0.19 0.23 0.28 0.39 0.60 0.80 0.83 0.89 0.87 0.71 0.52 0.43 0.41 0.44 0.54 0.60 0.69 0.72 0.58 0.45 0.37 0.37 0.41 0.44 0.57 0.75 0.81 0.74 0.66 0.64 0.63 0.61
0.03 0.03 0.02 0.02 0.02 0.02 0.02 0.03 0.06 0.09 0.15 0.24 0.30 0.35 0.40 0.46 0.63 0.82 0.89 0.91 0.87 0.70 0.50 0.41 0.40 0.39 0.45 0.58 0.66 0.64 0.51 0.39 0.28 0.25 0.29 0.39 0.54 0.71 0.71 0.61 0.57 0.58 0.58 0.58
0.02 0.02 0.02 0.02 0.01 0.02 0.02 0.05 0.10 0.19 0.28 0.32 0.36 0.43 0.49 0.53 0.62 0.81 1.02 1.03 0.78 0.56 0.43 0.40 0.38 0.37 0.42 0.57 0.61 0.57 0.48 0.39 0.30 0.25 0.29 0.41 0.59 0.68 0.60 0.53 0.51 0.50 0.46 0.49
0.01 0.01 0.01 0.01 0.01 0.02 0.03 0.07 0.14 0.26 0.39 0.40 0.38 0.42 0.51 0.61 0.67 0.73 0.81 0.96 0.84 0.63 0.44 0.37 0.36 0.39 0.44 0.56 0.55 0.49 0.45 0.41 0.35 0.31 0.34 0.46 0.58 0.61 0.55 0.50 0.51 0.47 0.46 0.47
0.00 0.00 0.01 0.01 0.03 0.04 0.05 0.09 0.16 0.31 0.47 0.50 0.47 0.46 0.53 0.63 0.73 0.89 0.85 0.77 0.77 0.69 0.49 0.36 0.32 0.38 0.44 0.51 0.51 0.44 0.45 0.42 0.36 0.33 0.35 0.41 0.47 0.50 0.51 0.51 0.50 0.46 0.45 0.45
0.00 0.01 0.01 0.02 0.04 0.06 0.10 0.15 0.20 0.30 0.42 0.42 0.36 0.33 0.43 0.58 0.61 0.64 0.73 0.77 0.73 0.68 0.52 0.38 0.29 0.32 0.40 0.42 0.45 0.47 0.50 0.44 0.36 0.31 0.31 0.36 0.42 0.46 0.52 0.56 0.53 0.48 0.45 0.41
0.01 0.01 0.02 0.04 0.09 0.15 0.19 0.25 0.32 0.38 0.47 0.42 0.31 0.23 0.29 0.45 0.58 0.55 0.56 0.61 0.63 0.59 0.49 0.41 0.36 0.38 0.40 0.45 0.49 0.50 0.46 0.37 0.30 0.29 0.33 0.41 0.45 0.49 0.53 0.51 0.46 0.46 0.46 0.44
0.01 0.02 0.03 0.07 0.12 0.17 0.22 0.33 0.41 0.50 0.63 0.59 0.41 0.25 0.23 0.30 0.40 0.46 0.51 0.56 0.60 0.61 0.50 0.41 0.39 0.43 0.45 0.49 0.50 0.47 0.42 0.37 0.34 0.35 0.39 0.44 0.46 0.46 0.48 0.46 0.41 0.41 0.41 0.39
0.02 0.02 0.05 0.10 0.16 0.18 0.20 0.27 0.38 0.55 0.73 0.74 0.52 0.29 0.25 0.29 0.37 0.43 0.49 0.56 0.62 0.63 0.54 0.43 0.40 0.42 0.45 0.47 0.46 0.41 0.34 0.31 0.33 0.35 0.35 0.34 0.36 0.41 0.43 0.44 0.38 0.35 0.34 0.32